Location: McFarlands Corners
(41.4117°N, 81.3382°W)
Time: 17:22:57
(UTC+00:00)

Vanguard 1 Rocket - Pass Details

Date: 25 February 2026
Orbit: 653 x 4214 km, 34.3° (Epoch: 8 March)

Event Time Altitude Azimuth Distance (km) Brightness Sun altitude
Rises 22:25:36 0° 276° (W) 5,232 12.6 7.5°
Reaches altitude 10° 22:28:43 10° 269° (W) 4,624 12.8 6.9°
Maximum altitude 22:41:24 40° 206° (SSW) 4,026 11.2 4.6°
Drops below altitude 10° 23:02:03 10° 146° (SSE) 7,276 11.8 0.9°
Sets 23:08:46 0° 141° (SE) 8,438 12.0 -0.3°
